Temperature
21 21 20 20 19 19 19 18 18 18 18 18 18 18 18 17 17 17 17 17 17 17 17 17 17 16 16 16 16 16 16 16 15 15 15 15 15 15 15 15 14 14 14
21 20 20 19 19 19 19 18 18 18 18 18 18 17 17 17 17 17 17 17 17 17 17 16 16 16 16 16 16 16 16 15 15 15 14 14 14 14 14 14 14 14 14
20 20 19 19 19 19 18 18 18 18 18 17 17 17 17 17 17 17 17 16 16 16 16 16 16 16 16 16 16 15 15 15 15 14 14 14 14 14 14 13 13 13 13
20 19 19 19 19 19 18 18 18 18 17 17 17 17 17 17 16 16 16 16 16 16 16 16 16 15 15 15 15 15 15 14 14 14 14 13 13 13 13 13 13 13 12
20 19 19 19 18 18 18 18 17 17 17 17 16 16 16 16 16 16 16 16 16 16 15 15 15 15 15 15 15 14 14 14 14 13 13 13 13 13 12 12 12 12 12
19 19 19 18 18 18 17 17 17 17 16 16 16 16 16 16 16 16 16 15 15 15 15 15 14 14 14 14 14 14 14 13 13 13 12 12 12 12 12 12 12 11 11
19 18 18 18 18 17 17 17 16 16 16 16 16 16 15 15 15 15 15 15 15 15 14 14 14 14 14 13 13 13 13 13 12 12 12 12 12 11 11 11 11 11 10
18 18 17 17 17 17 16 16 16 16 16 15 15 15 15 15 15 14 14 15 14 14 14 14 13 13 13 13 13 13 12 12 12 12 11 11 11 11 11 11 11 10 10
18 17 17 17 16 16 16 16 15 15 15 15 15 14 14 14 14 14 14 14 14 13 13 13 13 13 12 12 12 12 12 11 11 11 11 11 11 10 10 10 10 10 10
17 17 17 16 16 16 15 15 15 15 15 14 14 14 14 14 13 13 13 14 13 13 13 12 12 12 12 11 11 11 11 11 11 10 10 10 10 10 10 10 10 10 9
17 17 16 16 16 16 15 15 15 15 14 14 14 13 13 13 13 13 13 13 13 12 12 12 11 11 11 11 11 11 10 10 10 10 10 10 10 9 9 9 9 9 9
16 16 16 15 15 15 15 14 14 14 14 14 13 13 13 13 13 12 12 12 12 12 11 11 11 11 10 10 10 10 10 10 10 10 9 9 9 9 9 9 8 8 8
16 15 15 15 15 14 14 14 14 14 14 13 13 13 12 12 12 12 12 11 11 11 11 11 10 10 10 10 10 10 10 9 9 9 9 9 8 8 8 8 8 8 8
15 15 15 15 14 14 14 14 13 13 13 13 13 12 12 12 12 11 11 11 11 11 10 10 10 10 10 9 9 9 9 9 9 8 8 8 8 8 8 8 8 8 8
15 15 14 14 14 14 13 13 13 13 13 13 12 12 12 12 11 11 11 11 11 10 10 10 10 9 9 9 9 9 9 8 8 8 8 8 8 8 8 8 7 7 7
15 14 14 14 13 13 13 13 13 12 12 12 12 12 11 11 11 11 10 10 10 10 10 9 9 9 9 9 8 8 8 8 8 8 8 8 8 7 7 7 7 7 7
15 14 14 14 13 13 13 13 13 12 12 11 11 11 11 11 11 10 10 10 10 9 9 9 9 9 8 8 8 8 8 8 7 7 7 7 7 7 7 7 7 7 7
14 14 14 13 13 13 13 12 12 12 12 11 11 11 10 10 10 10 10 9 9 9 9 9 9 8 8 8 8 8 7 7 7 7 7 7 7 7 7 7 7 7 7
14 13 13 13 13 13 12 12 12 12 11 11 11 10 10 10 10 9 9 9 9 9 9 8 8 8 8 8 7 7 7 7 7 7 7 7 7 7 7 7 7 7 6
13 13 13 13 13 12 12 12 12 11 11 11 11 10 10 10 9 9 9 9 9 8 8 8 8 8 8 8 7 7 7 7 7 7 7 7 7 6 6 6 6 6 6
13 13 13 13 12 12 12 12 11 11 11 11 10 10 10 10 9 9 9 9 9 8 8 8 8 8 7 7 7 7 7 7 7 6 6 6 6 6 6 6 6 6 6
13 13 13 12 12 12 12 12 11 11 11 11 10 10 9 9 9 9 9 9 8 8 8 8 8 7 7 7 7 7 7 7 6 6 6 6 6 6 5 5 5 5 5
13 13 13 12 12 12 12 11 11 11 11 10 10 10 9 9 9 9 8 8 8 8 8 8 7 7 7 7 7 7 7 6 6 6 6 6 5 5 5 5 5 5 5
13 12 12 12 12 12 11 11 11 11 10 10 10 9 9 9 9 9 8 8 8 8 8 7 7 7 7 7 7 6 6 6 6 5 5 5 5 5 5 5 4 4 4
12 12 12 12 12 11 11 11 11 10 10 10 10 9 9 9 9 8 8 8 8 7 7 7 7 7 7 6 6 6 6 6 5 5 5 5 5 4 4 4 4 4 4
12 12 12 11 11 11 11 11 10 10 10 10 9 9 9 9 8 8 8 8 7 7 7 7 7 6 6 6 6 6 6 5 5 5 5 4 4 4 4 4 4 4 4
Wind_Speed
9 8 7 5 5 5 4 5 5 4 4 4 4 4 4 3 3 3 2 2 2 1 1 1 2 1 1 1 1 1 2 2 2 2 1 2 2 2 3 2 2 2 2
8 7 6 5 5 5 4 4 3 3 3 3 3 3 3 3 2 3 3 2 1 1 1 1 1 0 1 0 0 0 1 1 2 1 1 2 2 2 2 2 3 4 5
6 6 5 5 4 4 3 2 2 3 2 2 3 3 3 2 2 2 2 2 1 1 1 1 0 2 1 1 1 1 1 2 2 2 0 1 1 2 2 3 4 4 5
7 7 6 5 5 4 3 3 3 3 4 4 4 4 3 3 2 2 2 2 2 2 2 2 2 2 2 2 2 2 3 3 3 3 2 2 1 1 2 2 3 3 3
7 7 5 5 5 4 4 4 4 4 5 4 5 4 3 3 2 2 2 3 3 3 4 4 4 6 5 3 3 2 3 3 3 3 2 2 2 2 2 1 2 2 2
7 6 6 6 6 5 5 5 5 5 5 5 5 5 5 3 4 5 5 4 4 5 4 4 6 7 9 10 10 8 6 5 3 3 2 1 1 1 1 1 2 2 2
7 6 6 6 7 6 6 6 6 5 5 6 5 5 5 5 6 6 7 5 5 5 5 5 5 6 7 6 9 11 10 10 7 4 3 1 0 1 1 2 2 2 1
8 7 6 7 7 7 7 7 6 5 6 6 6 5 5 5 6 7 8 7 7 6 5 5 6 5 6 6 7 8 7 6 6 4 3 2 2 1 1 2 2 2 2
8 7 7 7 8 9 8 7 6 7 7 6 5 5 5 5 7 8 8 6 6 6 6 6 6 6 7 8 8 7 7 6 10 12 10 10 10 9 6 4 4 3 3
7 7 7 8 8 8 8 7 6 7 7 6 6 6 5 5 7 8 7 5 6 6 6 6 8 8 8 8 6 6 6 4 4 6 8 9 10 10 10 5 3 3 2
7 8 8 8 8 8 8 7 7 7 8 7 7 6 6 6 7 8 8 5 6 6 5 5 5 9 10 10 8 6 5 4 4 5 5 5 5 6 6 7 5 3 3
9 9 8 8 7 8 8 7 7 7 7 6 6 6 6 6 7 8 10 9 7 7 5 4 5 10 10 10 8 8 9 7 5 5 5 4 4 4 4 6 7 7 5
9 9 9 8 7 6 7 7 6 5 6 5 5 5 5 5 6 10 11 11 10 7 5 7 8 10 9 8 10 10 7 5 5 4 4 2 1 2 3 4 6 8 9
10 8 8 8 8 7 6 5 5 5 5 5 5 5 4 4 4 4 5 6 8 8 6 8 10 10 8 7 7 6 4 4 3 3 2 2 2 3 3 3 3 3 4
9 9 8 8 8 8 7 6 5 3 3 5 4 5 5 4 2 4 5 5 5 5 6 5 5 5 5 5 5 5 4 4 4 3 3 3 3 3 3 3 2 3 3
9 8 7 6 6 6 7 7 12 8 9 9 7 6 4 6 7 8 9 10 10 10 7 5 4 4 4 3 4 4 4 4 3 3 3 3 2 2 2 3 3 2 2
9 8 7 6 6 6 6 7 6 7 11 11 9 9 9 9 9 10 11 11 10 9 7 4 4 3 3 3 3 3 2 2 2 3 3 2 2 2 2 2 2 2 2
8 9 8 6 6 6 5 5 6 7 5 4 5 7 8 9 9 9 10 10 6 5 4 3 3 2 3 2 2 2 2 3 3 3 3 3 2 2 2 2 2 1 1
8 7 7 6 6 6 6 5 5 6 6 4 3 4 6 7 8 8 8 5 5 4 3 3 2 3 3 3 2 2 2 2 2 2 3 3 2 2 2 2 2 3 2
6 9 9 7 7 7 6 6 6 6 5 4 4 3 3 4 4 4 3 4 4 3 3 3 3 3 3 3 2 2 2 2 2 2 2 2 2 2 2 2 2 2 1
6 7 10 8 7 7 7 6 6 6 6 5 3 4 6 5 5 4 3 3 4 3 3 3 3 3 3 2 2 3 3 2 2 2 2 2 2 2 2 2 2 2 2
6 6 6 7 6 6 6 6 6 6 6 6 4 3 6 4 4 3 3 3 3 3 4 5 4 3 3 3 3 2 3 2 2 2 2 2 2 2 2 2 2 2 2
6 7 6 6 6 8 7 6 6 6 6 6 5 5 4 4 3 4 3 3 3 4 6 7 5 4 5 6 6 5 3 2 0 0 1 1 2 2 2 2 2 2 2
6 7 7 6 6 6 6 6 6 7 7 6 6 5 5 4 4 4 4 4 4 5 6 7 7 7 8 7 6 6 5 4 3 3 3 2 1 1 2 2 2 2 2
6 7 6 6 6 6 6 6 6 6 7 7 6 6 5 4 4 4 4 5 6 5 6 7 8 8 8 8 6 5 5 4 4 4 4 3 2 2 2 2 2 3 2
6 6 6 5 5 6 6 7 7 7 7 6 6 6 6 5 4 4 5 5 5 5 5 6 8 9 9 8 7 6 5 4 3 3 3 3 2 1 2 2 3 3 3
Wind_Direction
188 190 193 193 189 184 190 204 200 192 190 187 197 198 195 197 189 176 189 189 183 223 236 207 232 213 202 235 233 216 199 178 219 278 322 338 1 37 37 43 36 40 38
183 178 183 181 178 183 195 202 189 178 179 180 176 169 171 170 165 167 177 183 182 190 228 164 233 162 92 48 49 129 178 163 179 217 332 2 19 28 38 44 50 58 58
168 167 167 163 163 170 179 173 151 139 133 127 132 129 134 136 135 151 156 154 143 143 132 111 83 96 92 80 89 85 88 90 111 136 353 10 16 25 33 39 53 53 59
152 157 158 157 158 158 151 132 121 117 110 102 102 113 125 128 127 135 137 136 112 96 89 90 84 89 113 117 98 95 100 92 87 93 73 34 23 3 48 51 37 27 42
144 149 149 135 126 123 119 115 108 104 103 100 97 96 103 110 111 120 125 130 114 92 70 63 69 75 75 83 90 94 104 102 96 95 83 59 36 38 28 5 48 33 37
136 137 126 117 115 109 105 102 97 97 93 88 86 88 83 89 90 98 106 100 96 95 84 70 69 67 69 69 70 72 84 102 107 99 85 77 11 350 11 64 87 61 25
118 117 115 118 116 112 113 105 101 99 94 88 84 85 82 73 79 92 100 98 92 92 91 86 81 69 64 74 68 63 61 67 84 109 100 80 31 309 84 76 77 72 65
110 108 108 113 117 113 108 105 106 103 96 90 86 84 84 76 85 95 95 89 89 86 83 86 90 75 70 78 79 67 58 52 61 75 94 68 51 46 98 120 117 83 50
113 113 112 114 113 110 109 109 107 101 92 87 86 83 84 75 83 92 98 93 88 78 74 78 86 83 71 79 84 78 64 48 55 60 61 58 58 62 77 76 62 71 45
114 112 110 110 111 113 112 107 102 99 96 91 80 72 76 75 82 88 99 99 93 84 73 64 70 78 74 74 83 86 78 55 47 43 42 43 46 50 57 68 85 87 77
108 104 103 104 107 109 107 104 104 101 95 88 79 66 60 64 78 86 91 96 103 95 84 69 62 72 73 71 77 82 89 82 62 60 53 41 37 39 39 45 61 94 95
106 104 102 101 106 109 108 104 103 106 100 93 85 71 52 52 67 78 84 86 95 98 95 83 75 74 72 70 71 71 73 70 65 62 58 47 41 32 21 40 49 57 69
105 104 100 94 90 99 108 111 107 105 105 101 97 89 71 57 62 74 81 83 86 91 93 89 81 75 70 65 63 66 67 66 66 67 61 43 11 10 32 36 34 41 38
108 103 99 97 89 81 83 93 104 108 113 113 110 107 95 75 66 64 73 81 81 82 83 77 72 67 63 58 53 49 51 68 84 83 65 30 24 34 33 33 37 28 35
111 106 100 97 99 87 74 64 85 87 128 134 136 136 127 114 110 112 110 102 102 104 97 76 64 61 57 49 45 42 41 47 53 47 54 46 36 35 24 23 44 46 44
122 118 115 113 108 106 101 80 56 66 79 95 110 120 105 118 121 107 101 102 101 104 93 84 74 73 72 64 59 44 37 40 43 53 57 56 50 44 29 20 34 51 46
135 133 130 127 124 122 119 116 100 62 62 70 84 98 108 113 108 103 101 98 93 92 88 85 80 78 71 67 65 62 43 26 44 59 60 53 48 42 41 29 26 33 27
136 138 138 137 135 132 130 127 126 124 109 69 54 84 103 105 103 103 103 93 78 73 90 98 95 88 83 73 63 58 49 40 40 43 41 36 39 40 32 18 23 36 26
139 143 143 141 139 137 134 128 123 121 122 119 98 72 85 93 92 96 100 101 113 105 98 99 103 100 90 80 75 75 74 64 53 49 39 31 31 46 37 16 21 34 52
139 143 144 144 143 142 142 139 136 135 135 135 135 137 116 97 96 91 87 101 109 111 111 112 107 103 99 93 88 88 78 62 55 51 35 30 26 45 47 32 38 40 24
139 141 137 139 145 148 149 150 150 148 148 148 152 154 144 129 130 128 122 122 127 129 126 126 124 113 105 103 96 88 85 66 50 40 33 29 34 35 26 32 40 42 34
140 143 146 147 148 148 148 148 148 148 150 147 139 131 134 122 126 129 134 137 141 136 137 134 131 123 124 122 115 107 97 81 57 45 37 29 31 31 24 25 26 19 14
140 140 139 139 139 141 141 145 149 148 147 148 146 140 139 140 140 140 142 144 138 136 133 131 128 121 122 123 121 120 120 134 157 56 66 44 32 24 22 17 2 358 348
139 142 143 142 141 144 146 150 151 151 151 152 150 149 152 154 153 152 155 149 141 136 136 137 142 143 139 133 126 122 124 125 114 100 90 81 55 24 19 10 347 336 332
140 141 143 145 147 148 148 149 149 150 153 156 158 159 160 158 155 158 158 153 146 141 143 147 151 149 147 144 138 132 121 109 94 87 77 71 53 26 14 358 341 328 322
138 138 139 140 142 146 148 150 152 153 157 161 163 164 164 162 161 161 159 157 156 155 152 154 161 160 156 155 154 146 130 110 87 73 66 62 47 13 359 340 334 333 326
Height
1537 1538 1540 1541 1542 1543 1544 1545 1546 1546 1547 1547 1547 1547 1547 1548 1548 1549 1549 1549 1549 1549 1548 1548 1548 1548 1548 1548 1548 1548 1548 1548 1547 1547 1547 1546 1546 1545 1545 1544 1544 1543 1543
1535 1536 1538 1539 1540 1541 1541 1542 1543 1543 1544 1544 1545 1545 1545 1545 1546 1546 1546 1546 1546 1546 1546 1546 1545 1546 1545 1545 1545 1545 1545 1545 1545 1544 1544 1544 1544 1543 1542 1542 1542 1541 1541
1533 1535 1536 1537 1537 1538 1539 1540 1540 1541 1541 1542 1542 1542 1542 1543 1543 1543 1544 1544 1544 1544 1544 1544 1544 1544 1543 1543 1543 1543 1543 1543 1543 1543 1543 1543 1543 1542 1541 1540 1540 1539 1539
1531 1532 1533 1534 1535 1536 1537 1538 1538 1539 1539 1539 1540 1540 1540 1541 1542 1542 1542 1542 1542 1543 1543 1543 1543 1542 1542 1542 1542 1541 1541 1541 1542 1542 1541 1541 1541 1540 1540 1539 1538 1538 1537
1529 1530 1531 1532 1534 1534 1535 1536 1536 1537 1537 1537 1538 1539 1539 1539 1540 1541 1541 1540 1541 1541 1541 1541 1541 1541 1541 1541 1541 1540 1540 1540 1540 1540 1540 1540 1539 1539 1538 1538 1537 1536 1536
1527 1527 1529 1531 1532 1532 1534 1534 1535 1536 1536 1537 1537 1538 1538 1538 1539 1540 1540 1539 1540 1540 1540 1540 1541 1541 1540 1540 1540 1540 1540 1540 1539 1539 1539 1539 1538 1538 1538 1537 1536 1535 1534
1525 1526 1527 1529 1530 1531 1533 1534 1534 1535 1536 1536 1537 1537 1537 1538 1539 1539 1539 1539 1539 1540 1540 1540 1540 1540 1540 1539 1540 1540 1539 1539 1540 1540 1539 1539 1538 1537 1537 1536 1535 1535 1534
1525 1525 1527 1528 1529 1531 1532 1533 1533 1534 1535 1536 1537 1537 1537 1538 1539 1539 1539 1539 1539 1540 1540 1540 1540 1541 1541 1540 1540 1540 1540 1540 1540 1539 1539 1539 1539 1538 1537 1537 1536 1535 1535
1525 1526 1527 1529 1530 1531 1532 1533 1534 1534 1535 1536 1537 1538 1538 1539 1539 1539 1540 1540 1540 1540 1540 1541 1541 1541 1542 1541 1541 1541 1540 1541 1541 1540 1540 1539 1539 1538 1538 1537 1537 1535 1535
1525 1526 1528 1529 1530 1531 1532 1533 1534 1535 1536 1537 1537 1538 1539 1539 1540 1540 1541 1541 1540 1540 1541 1542 1542 1542 1543 1543 1542 1542 1541 1542 1542 1542 1541 1540 1540 1539 1539 1538 1537 1536 1535
1526 1527 1528 1530 1531 1532 1533 1534 1535 1536 1537 1538 1538 1539 1540 1540 1541 1541 1542 1542 1541 1542 1542 1543 1544 1544 1544 1544 1544 1544 1543 1544 1543 1543 1542 1542 1541 1540 1540 1539 1539 1538 1537
1527 1528 1529 1531 1532 1533 1534 1535 1536 1537 1538 1539 1540 1540 1541 1542 1543 1543 1543 1543 1543 1543 1544 1545 1545 1545 1545 1545 1546 1546 1546 1545 1545 1544 1544 1543 1542 1542 1541 1541 1540 1539 1538
1528 1529 1530 1532 1533 1535 1536 1536 1538 1539 1540 1540 1541 1541 1542 1543 1544 1544 1545 1545 1545 1545 1546 1546 1547 1547 1547 1547 1547 1547 1547 1547 1546 1546 1545 1545 1544 1544 1543 1542 1541 1541 1540
1528 1530 1531 1533 1534 1535 1537 1538 1539 1540 1541 1542 1542 1542 1543 1544 1545 1545 1546 1546 1547 1547 1548 1548 1548 1549 1549 1549 1549 1549 1548 1548 1548 1547 1547 1547 1546 1545 1545 1544 1543 1542 1541
1529 1531 1532 1534 1535 1536 1537 1539 1540 1541 1542 1543 1543 1544 1544 1545 1546 1547 1547 1548 1548 1549 1549 1550 1550 1550 1550 1550 1550 1550 1550 1549 1549 1549 1549 1548 1548 1547 1546 1545 1544 1543 1542
1530 1532 1533 1535 1536 1537 1538 1539 1541 1542 1543 1544 1545 1545 1546 1547 1547 1548 1549 1549 1550 1551 1552 1551 1551 1552 1552 1552 1552 1551 1551 1551 1551 1550 1550 1549 1548 1548 1547 1546 1545 1544 1543
1530 1532 1534 1535 1537 1538 1539 1540 1541 1543 1544 1545 1546 1547 1547 1548 1549 1550 1550 1551 1552 1553 1553 1553 1553 1553 1553 1553 1553 1553 1552 1552 1552 1551 1551 1550 1549 1549 1548 1547 1546 1545 1544
1531 1533 1534 1536 1537 1539 1540 1541 1542 1543 1544 1546 1547 1548 1549 1550 1550 1551 1552 1553 1553 1554 1554 1554 1555 1555 1555 1554 1554 1554 1553 1553 1552 1552 1551 1551 1550 1549 1548 1547 1546 1545 1544
1531 1533 1535 1536 1538 1539 1541 1542 1543 1544 1545 1546 1547 1549 1550 1551 1552 1553 1553 1554 1554 1555 1555 1555 1556 1555 1555 1555 1554 1554 1553 1553 1552 1552 1552 1551 1550 1549 1549 1548 1547 1546 1544
1532 1533 1535 1537 1538 1539 1541 1542 1544 1545 1546 1547 1548 1549 1551 1552 1553 1554 1554 1555 1555 1556 1556 1556 1556 1556 1556 1555 1555 1554 1554 1553 1553 1552 1552 1551 1550 1549 1548 1547 1546 1545 1544
1532 1533 1535 1537 1538 1540 1541 1543 1544 1545 1546 1548 1549 1550 1552 1553 1553 1554 1555 1556 1556 1557 1557 1557 1557 1557 1556 1556 1555 1554 1554 1553 1553 1552 1551 1551 1550 1549 1548 1547 1546 1545 1544
1532 1533 1535 1536 1538 1540 1541 1543 1544 1545 1547 1548 1549 1551 1552 1553 1554 1555 1556 1556 1557 1557 1557 1557 1557 1557 1556 1556 1555 1554 1554 1553 1552 1552 1551 1550 1549 1548 1547 1546 1545 1544 1543
1531 1533 1535 1536 1538 1539 1541 1542 1544 1545 1546 1548 1549 1551 1552 1553 1554 1555 1556 1557 1557 1557 1557 1557 1557 1557 1556 1556 1555 1554 1553 1552 1552 1551 1550 1549 1548 1547 1546 1545 1544 1543 1542
1531 1533 1534 1536 1537 1539 1540 1542 1543 1545 1546 1548 1549 1551 1552 1553 1554 1555 1556 1556 1556 1557 1557 1557 1557 1556 1556 1555 1554 1553 1552 1551 1550 1550 1549 1548 1547 1546 1545 1544 1543 1542 1541
1531 1532 1534 1535 1537 1538 1540 1541 1543 1544 1546 1547 1549 1550 1552 1553 1553 1554 1555 1555 1556 1556 1556 1556 1556 1555 1555 1554 1553 1552 1551 1550 1549 1548 1547 1546 1545 1544 1543 1542 1541 1540 1539
1530 1532 1533 1535 1536 1538 1539 1541 1542 1544 1545 1547 1548 1549 1551 1552 1553 1553 1554 1554 1555 1555 1555 1554 1554 1554 1553 1553 1552 1551 1550 1549 1548 1547 1546 1545 1543 1542 1541 1540 1539 1538 1536